TimeMST,TemperatureF,Dew PointF,Humidity,Sea Level PressureIn,VisibilityMPH,Wind Direction,Wind SpeedMPH,Gust SpeedMPH,PrecipitationIn,Events,Conditions,WindDirDegrees,DateUTC
12:15 AM,44.6,17.6,34,30.27,10.0,Calm,Calm,-,N/A,,Clear,0,2012-11-28 07:15:00
12:35 AM,44.6,17.6,34,30.27,10.0,Calm,Calm,-,N/A,,Clear,0,2012-11-28 07:35:00
12:55 AM,44.6,17.6,34,30.26,10.0,Calm,Calm,-,N/A,,Clear,0,2012-11-28 07:55:00
1:15 AM,44.6,17.6,34,30.26,10.0,Calm,Calm,-,N/A,,Clear,0,2012-11-28 08:15:00
1:35 AM,44.6,19.4,37,30.26,10.0,Calm,Calm,-,N/A,,Clear,0,2012-11-28 08:35:00
1:55 AM,46.4,19.4,34,30.26,10.0,Calm,Calm,-,N/A,,Clear,0,2012-11-28 08:55:00
2:15 AM,46.4,19.4,34,30.26,10.0,Calm,Calm,-,N/A,,Clear,0,2012-11-28 09:15:00
2:35 AM,42.8,17.6,36,30.26,10.0,SW,3.5,-,N/A,,Clear,220,2012-11-28 09:35:00
2:55 AM,42.8,17.6,36,30.26,10.0,South,4.6,-,N/A,,Clear,180,2012-11-28 09:55:00
3:15 AM,41.0,17.6,39,30.26,10.0,SW,3.5,-,N/A,,Clear,230,2012-11-28 10:15:00
3:35 AM,42.8,19.4,39,30.25,10.0,Calm,Calm,-,N/A,,Clear,0,2012-11-28 10:35:00
3:55 AM,41.0,19.4,42,30.25,10.0,Calm,Calm,-,N/A,,Clear,0,2012-11-28 10:55:00
4:15 AM,39.2,17.6,42,30.25,10.0,Calm,Calm,-,N/A,,Clear,0,2012-11-28 11:15:00
4:35 AM,39.2,17.6,42,30.25,10.0,Calm,Calm,-,N/A,,Clear,0,2012-11-28 11:35:00
4:55 AM,39.2,19.4,45,30.25,10.0,Calm,Calm,-,N/A,,Clear,0,2012-11-28 11:55:00
5:15 AM,37.4,15.8,41,30.25,10.0,Calm,Calm,-,N/A,,Clear,0,2012-11-28 12:15:00
5:35 AM,37.4,17.6,45,30.25,10.0,SSW,3.5,-,N/A,,Clear,210,2012-11-28 12:35:00
5:55 AM,39.2,17.6,42,30.25,10.0,Calm,Calm,-,N/A,,Clear,0,2012-11-28 12:55:00
6:35 AM,37.4,17.6,45,30.25,10.0,Calm,Calm,-,N/A,,Clear,0,2012-11-28 13:35:00
6:55 AM,39.2,19.4,45,30.25,10.0,Calm,Calm,-,N/A,,Clear,0,2012-11-28 13:55:00
7:15 AM,37.4,19.4,48,30.25,10.0,Calm,Calm,-,N/A,,Clear,0,2012-11-28 14:15:00
7:35 AM,37.4,21.2,52,30.25,10.0,Calm,Calm,-,N/A,,Clear,0,2012-11-28 14:35:00
7:55 AM,37.4,19.4,48,30.25,10.0,Calm,Calm,-,N/A,,Clear,0,2012-11-28 14:55:00
8:15 AM,37.4,21.2,52,30.26,10.0,Calm,Calm,-,N/A,,Clear,0,2012-11-28 15:15:00
8:35 AM,37.4,19.4,48,30.26,10.0,Calm,Calm,-,N/A,,Clear,0,2012-11-28 15:35:00
8:55 AM,39.2,19.4,45,30.27,10.0,Calm,Calm,-,N/A,,Clear,0,2012-11-28 15:55:00
9:15 AM,42.8,21.2,42,30.26,10.0,Calm,Calm,-,N/A,,Clear,0,2012-11-28 16:15:00
9:35 AM,42.8,21.2,42,30.26,10.0,Calm,Calm,-,N/A,,Clear,0,2012-11-28 16:35:00
9:55 AM,44.6,21.2,39,30.26,10.0,Calm,Calm,-,N/A,,Clear,0,2012-11-28 16:55:00
10:35 AM,48.2,21.2,34,30.26,10.0,Calm,Calm,-,N/A,,Clear,0,2012-11-28 17:35:00
11:15 AM,51.8,21.2,30,30.24,10.0,South,3.5,-,N/A,,Clear,180,2012-11-28 18:15:00
11:35 AM,51.8,21.2,30,30.24,10.0,SSW,4.6,-,N/A,,Clear,200,2012-11-28 18:35:00
11:55 AM,55.4,21.2,26,30.22,10.0,SW,3.5,-,N/A,,Clear,230,2012-11-28 18:55:00
12:15 PM,55.4,23.0,29,30.21,10.0,Calm,Calm,-,N/A,,Clear,0,2012-11-28 19:15:00
12:35 PM,57.2,21.2,25,30.20,10.0,SW,4.6,-,N/A,,Clear,220,2012-11-28 19:35:00
12:55 PM,57.2,21.2,25,30.18,10.0,SW,4.6,-,N/A,,Clear,230,2012-11-28 19:55:00
1:15 PM,60.8,23.0,23,30.16,10.0,Calm,Calm,-,N/A,,Clear,0,2012-11-28 20:15:00
1:35 PM,60.8,21.2,22,30.14,10.0,Calm,Calm,-,N/A,,Clear,0,2012-11-28 20:35:00
1:55 PM,60.8,23.0,23,30.13,10.0,Calm,Calm,-,N/A,,Clear,0,2012-11-28 20:55:00
2:15 PM,62.6,23.0,22,30.12,10.0,SSW,5.8,-,N/A,,Clear,210,2012-11-28 21:15:00
2:35 PM,62.6,23.0,22,30.11,10.0,Calm,Calm,-,N/A,,Clear,0,2012-11-28 21:35:00
2:55 PM,64.4,23.0,21,30.10,10.0,Calm,Calm,-,N/A,,Clear,0,2012-11-28 21:55:00
3:15 PM,64.4,24.8,22,30.10,10.0,Calm,Calm,-,N/A,,Clear,0,2012-11-28 22:15:00
3:35 PM,64.4,24.8,22,30.10,10.0,Calm,Calm,-,N/A,,Clear,0,2012-11-28 22:35:00
3:55 PM,66.2,24.8,21,30.10,10.0,Calm,Calm,-,N/A,,Clear,0,2012-11-28 22:55:00
4:15 PM,66.2,24.8,21,30.10,10.0,Calm,Calm,-,N/A,,Clear,0,2012-11-28 23:15:00
4:35 PM,66.2,24.8,21,30.10,10.0,SE,4.6,-,N/A,,Clear,140,2012-11-28 23:35:00
4:55 PM,62.6,23.0,22,30.10,10.0,SSE,5.8,-,N/A,,Clear,150,2012-11-28 23:55:00
5:15 PM,62.6,23.0,22,30.11,10.0,SSW,3.5,-,N/A,,Clear,210,2012-11-29 00:15:00
5:35 PM,62.6,23.0,22,30.12,10.0,Calm,Calm,-,N/A,,Clear,0,2012-11-29 00:35:00
5:55 PM,60.8,23.0,23,30.13,10.0,SSW,4.6,-,N/A,,Clear,210,2012-11-29 00:55:00
6:15 PM,59.0,23.0,25,30.13,10.0,SW,8.1,-,N/A,,Clear,230,2012-11-29 01:15:00
6:35 PM,60.8,24.8,25,30.12,10.0,South,4.6,-,N/A,,Clear,190,2012-11-29 01:35:00
6:55 PM,55.4,21.2,26,30.12,7.0,SE,5.8,-,N/A,,Clear,130,2012-11-29 01:55:00
7:15 PM,57.2,23.0,27,30.12,3.0,ESE,5.8,-,N/A,,Clear,120,2012-11-29 02:15:00
7:55 PM,57.2,23.0,27,30.13,10.0,Calm,Calm,-,N/A,,Clear,0,2012-11-29 02:55:00
8:15 PM,57.2,23.0,27,30.12,10.0,SSW,3.5,-,N/A,,Partly Cloudy,200,2012-11-29 03:15:00
8:35 PM,55.4,23.0,29,30.13,10.0,ESE,5.8,-,N/A,,Scattered Clouds,120,2012-11-29 03:35:00
8:55 PM,55.4,23.0,29,30.13,10.0,Calm,Calm,-,N/A,,Clear,0,2012-11-29 03:55:00
9:15 PM,57.2,24.8,29,30.13,10.0,East,5.8,-,N/A,,Clear,100,2012-11-29 04:15:00
9:35 PM,55.4,24.8,31,30.14,10.0,ENE,4.6,-,N/A,,Clear,60,2012-11-29 04:35:00
9:55 PM,55.4,23.0,29,30.15,10.0,SE,6.9,-,N/A,,Clear,130,2012-11-29 04:55:00
10:15 PM,53.6,23.0,30,30.14,10.0,SE,11.5,-,N/A,,Clear,130,2012-11-29 05:15:00
10:35 PM,53.6,23.0,30,30.14,10.0,SE,4.6,-,N/A,,Clear,130,2012-11-29 05:35:00
10:55 PM,55.4,24.8,31,30.15,10.0,SE,5.8,-,N/A,,Clear,130,2012-11-29 05:55:00
11:35 PM,53.6,21.2,28,30.15,10.0,Calm,Calm,-,N/A,,Clear,0,2012-11-29 06:35:00
11:55 PM,53.6,21.2,28,30.16,10.0,Calm,Calm,-,N/A,,Clear,0,2012-11-29 06:55:00